Wind_Speed
13 13 13 14 14 14 14 14 14 14 14 15 15 16 16 17 17 17 16 16 16 17 17 17 17 16 17 17 18 18 18 18 18 18 19 19 19 20
14 14 14 15 15 15 15 15 15 15 15 15 15 15 16 16 16 16 16 16 16 17 17 17 16 16 16 16 17 17 18 18 19 19 19 19 20 20
14 15 15 15 15 15 15 15 15 15 15 15 16 16 16 16 16 16 16 17 17 18 18 17 17 17 16 16 16 17 18 19 19 20 20 19 20 20
14 15 15 15 15 15 15 15 15 15 15 15 15 16 16 16 17 17 17 18 18 18 18 18 18 17 17 17 17 18 18 19 20 20 19 19 20 21
15 15 15 15 15 15 16 16 15 15 15 15 16 16 17 17 17 17 18 18 18 18 19 19 19 18 18 18 18 18 17 17 18 19 19 19 20 21
15 15 15 15 15 16 17 17 16 15 15 16 16 17 17 17 17 17 17 17 18 19 19 18 18 18 18 19 19 18 18 18 18 19 20 20 20 21
15 16 16 16 16 16 17 18 17 17 16 16 16 17 17 18 18 18 17 18 18 18 18 18 18 18 18 18 19 18 18 19 19 20 20 20 20 20
16 16 16 16 16 17 18 18 18 18 17 17 16 17 17 18 18 18 19 18 18 18 18 18 18 18 18 18 19 19 19 19 20 20 20 20 20 20
17 16 16 16 17 18 18 18 18 19 18 17 17 18 18 18 19 19 19 19 19 18 18 17 18 18 18 18 18 18 18 19 20 20 21 21 21 21
17 17 17 17 18 19 19 18 18 18 18 18 18 19 19 19 20 20 20 19 19 19 18 18 18 18 18 18 19 19 19 19 20 21 21 21 22 22
17 17 17 18 18 18 18 18 18 18 18 18 19 19 19 20 20 19 20 20 19 19 19 19 18 18 18 19 19 19 20 20 20 21 22 22 23 23
19 19 19 18 18 18 18 18 19 19 18 19 19 20 20 20 19 20 20 19 19 20 19 19 19 19 18 19 20 20 20 21 21 22 22 22 22 23
20 20 20 20 19 19 19 19 19 19 19 19 19 19 20 20 20 20 20 20 20 20 19 19 19 19 19 19 20 20 20 20 21 21 21 21 22 23
21 21 20 20 19 19 19 19 19 20 20 19 19 19 19 19 20 20 21 21 21 20 20 20 20 20 20 20 20 21 22 22 22 22 22 22 22 23
21 22 21 21 20 20 20 20 20 20 20 20 19 19 20 20 21 21 22 21 21 20 21 21 22 21 21 21 22 22 22 22 22 22 22 22 22 23
21 21 21 21 20 20 20 20 20 20 21 21 21 21 21 21 22 21 21 20 20 20 20 21 22 22 21 21 22 22 22 22 22 22 22 22 22 22
20 20 20 20 20 20 20 20 20 21 21 21 21 21 22 22 21 21 20 20 19 19 20 20 21 21 21 21 21 21 21 21 21 22 22 22 22 22
19 19 19 20 21 20 20 20 20 20 20 21 22 22 22 21 20 20 20 20 20 19 20 20 20 20 20 20 21 22 21 21 21 22 22 22 22 22
20 20 20 20 21 22 21 21 21 20 20 21 21 21 21 20 19 19 19 20 20 20 20 20 20 20 21 21 21 21 22 22 22 22 22 22 22 22
22 21 21 21 21 21 21 21 21 21 21 21 22 21 20 20 20 20 21 21 21 21 21 21 21 21 21 21 21 21 22 22 22 22 22 22 22 23
22 22 22 22 21 21 21 22 22 22 22 22 22 22 21 21 22 22 22 22 22 21 22 22 22 22 23 23 22 22 23 22 22 22 22 22 23 24
22 23 22 22 22 22 22 23 23 23 23 23 23 23 23 22 23 23 23 23 23 22 23 23 23 24 24 24 23 22 22 22 23 23 23 23 24 24
24 23 23 23 23 23 24 24 24 23 23 23 23 23 24 24 23 24 24 23 23 23 23 24 24 25 25 24 22 22 23 23 23 23 24 24 25 25
Wind_Direction
276 276 274 270 269 271 272 273 273 273 274 274 274 275 275 274 273 272 275 280 282 282 281 280 279 279 280 281 279 274 270 269 269 266 265 266 267 265
276 277 275 271 270 270 273 274 275 274 273 274 276 278 277 274 272 270 274 279 281 282 283 280 280 280 281 282 281 278 274 272 271 268 268 269 268 267
276 277 275 272 270 269 272 272 272 273 275 274 276 277 274 274 271 269 271 274 277 282 283 282 280 281 281 283 283 284 281 275 272 273 273 273 272 270
276 276 274 271 269 269 270 271 272 273 273 273 275 276 276 275 273 273 273 275 278 281 284 283 282 281 280 284 285 285 284 278 273 274 274 274 275 274
277 278 274 270 266 267 270 272 271 271 272 274 275 278 278 277 278 278 278 279 281 283 286 285 282 280 281 283 285 286 284 281 278 276 276 277 278 278
274 274 274 271 267 267 268 270 270 272 273 274 277 279 279 279 281 280 282 283 282 285 286 285 282 282 283 283 285 286 284 283 282 281 280 280 281 281
274 274 275 272 269 268 270 270 270 272 275 276 279 280 279 280 282 280 282 285 286 286 287 287 287 284 285 285 286 285 284 283 284 285 285 283 283 282
274 275 274 273 271 270 271 271 271 273 277 278 280 281 281 283 282 280 282 283 285 286 288 289 290 289 286 285 285 284 283 283 285 287 287 286 285 284
270 273 274 272 271 271 271 271 272 273 273 276 280 281 281 282 282 282 283 283 284 285 286 287 289 290 289 285 285 284 285 285 286 287 288 287 287 287
269 270 272 274 274 274 273 273 274 275 273 276 280 282 282 282 282 282 282 284 285 285 287 288 288 288 287 286 285 286 288 288 287 288 289 289 288 289
270 270 272 274 276 276 275 276 276 277 274 275 278 282 285 285 282 281 280 282 282 283 285 287 287 288 287 289 288 288 290 291 291 291 290 289 288 289
272 271 272 273 275 277 277 276 276 276 274 277 279 280 283 284 281 281 280 280 281 282 284 285 287 289 289 291 293 292 291 291 293 294 293 292 290 291
274 273 272 272 274 274 274 275 275 274 274 277 279 280 281 283 283 283 282 283 283 282 283 285 287 288 290 292 294 293 293 292 293 295 295 294 295 295
274 273 271 270 272 272 271 274 276 274 272 274 278 278 279 281 283 283 282 283 283 281 282 284 286 287 290 292 294 293 293 294 295 296 295 296 296 297
273 271 269 268 269 269 269 271 274 274 270 271 275 276 279 281 283 283 281 281 282 283 282 283 284 286 288 291 292 293 294 295 295 296 295 295 296 296
273 269 267 267 268 269 270 270 272 272 272 273 273 275 278 280 282 282 281 281 282 283 284 285 286 286 288 290 292 292 294 296 296 296 295 295 297 298
273 271 268 268 269 271 271 271 272 273 274 274 274 275 277 279 281 282 282 283 284 284 285 288 288 287 288 289 292 293 294 296 296 297 297 298 299 299
273 273 270 268 269 270 270 270 271 272 273 275 276 276 277 278 279 281 281 282 282 282 283 286 286 286 289 290 291 292 293 294 296 298 298 299 300 300
273 274 274 272 272 272 272 272 273 273 273 275 278 278 276 275 276 278 281 283 282 283 285 287 288 288 288 290 291 291 293 295 296 297 298 298 299 299
273 273 275 274 273 274 273 274 276 275 275 275 276 277 277 275 274 276 280 282 284 286 287 289 289 289 289 290 291 292 294 295 297 297 297 298 299 300
272 274 274 274 274 272 272 275 276 276 275 275 275 275 276 277 275 275 278 280 282 283 285 286 287 288 289 289 291 292 292 293 295 297 298 299 301 302
272 273 273 274 273 271 273 274 276 276 276 274 274 274 274 275 276 275 276 277 280 283 285 285 286 287 289 288 289 291 293 294 295 297 298 299 301 301
270 272 272 275 273 272 274 275 275 276 277 275 275 277 275 275 276 277 277 277 280 282 284 285 286 287 290 290 289 290 292 294 296 298 300 300 301 301
Height
5816 5816 5816 5816 5816 5816 5816 5816 5816 5816 5816 5816 5816 5816 5815 5815 5815 5815 5815 5815 5815 5814 5813 5812 5811 5810 5809 5808 5807 5807 5806 5806 5806 5806 5806 5806 5807 5807
5812 5812 5812 5812 5812 5812 5812 5812 5812 5812 5812 5812 5811 5811 5811 5811 5810 5810 5811 5810 5810 5809 5808 5807 5806 5806 5804 5803 5802 5802 5801 5801 5801 5801 5800 5800 5800 5801
5808 5808 5808 5808 5808 5808 5808 5808 5808 5808 5808 5808 5807 5807 5807 5807 5806 5806 5806 5805 5805 5804 5803 5802 5801 5801 5800 5799 5798 5797 5796 5796 5795 5795 5795 5795 5795 5795
5805 5804 5804 5803 5803 5803 5804 5804 5804 5804 5804 5803 5803 5803 5802 5802 5802 5802 5801 5800 5800 5799 5798 5797 5796 5795 5795 5794 5793 5792 5791 5790 5790 5789 5789 5789 5789 5788
5801 5800 5800 5799 5799 5799 5799 5799 5799 5799 5799 5799 5799 5798 5798 5798 5797 5797 5796 5795 5795 5794 5793 5792 5790 5790 5789 5789 5787 5786 5785 5784 5784 5784 5783 5783 5782 5782
5796 5796 5796 5795 5795 5795 5795 5795 5795 5795 5795 5794 5794 5794 5793 5793 5793 5792 5792 5791 5790 5789 5787 5786 5785 5784 5783 5783 5782 5781 5780 5779 5779 5778 5777 5777 5776 5775
5792 5791 5791 5791 5791 5791 5791 5790 5790 5790 5790 5790 5789 5789 5789 5789 5788 5788 5787 5786 5785 5783 5782 5780 5779 5778 5778 5777 5776 5775 5774 5774 5773 5772 5771 5771 5770 5768
5787 5787 5786 5786 5786 5786 5786 5786 5786 5786 5786 5785 5785 5784 5784 5784 5783 5782 5782 5781 5780 5779 5777 5776 5774 5772 5772 5771 5770 5770 5769 5768 5767 5766 5765 5764 5763 5762
5782 5782 5782 5782 5781 5781 5781 5780 5780 5780 5781 5781 5781 5780 5779 5779 5778 5777 5776 5775 5774 5773 5772 5771 5769 5768 5766 5766 5765 5764 5763 5762 5761 5760 5759 5758 5757 5755
5777 5777 5777 5777 5776 5776 5775 5775 5775 5775 5775 5776 5776 5775 5774 5773 5772 5772 5770 5770 5769 5768 5766 5765 5764 5763 5762 5761 5760 5759 5758 5757 5755 5754 5753 5752 5750 5749
5773 5772 5772 5771 5771 5770 5770 5770 5770 5770 5770 5770 5770 5769 5768 5768 5767 5766 5765 5764 5763 5762 5761 5760 5759 5758 5757 5755 5754 5753 5752 5751 5750 5748 5747 5745 5744 5742
5767 5767 5767 5766 5766 5765 5765 5765 5765 5765 5765 5765 5764 5764 5763 5762 5761 5760 5759 5758 5757 5757 5756 5755 5754 5752 5752 5751 5749 5748 5746 5745 5744 5742 5740 5738 5737 5735
5762 5762 5761 5761 5760 5760 5760 5760 5760 5760 5760 5759 5759 5759 5758 5757 5756 5755 5754 5753 5752 5751 5751 5749 5748 5747 5746 5746 5744 5742 5740 5739 5737 5736 5734 5732 5730 5728
5756 5755 5755 5755 5755 5754 5754 5754 5754 5754 5754 5754 5754 5753 5753 5752 5751 5749 5749 5748 5747 5746 5745 5744 5743 5742 5741 5739 5738 5737 5735 5733 5731 5729 5727 5726 5724 5722
5748 5749 5749 5749 5749 5749 5748 5748 5748 5748 5748 5748 5748 5747 5747 5746 5745 5744 5743 5742 5741 5740 5739 5738 5737 5736 5735 5733 5732 5730 5729 5727 5725 5723 5721 5719 5717 5715
5742 5742 5743 5742 5742 5742 5742 5742 5742 5742 5742 5742 5742 5741 5741 5740 5739 5738 5737 5736 5735 5734 5733 5732 5730 5729 5728 5727 5726 5724 5722 5720 5718 5716 5715 5713 5711 5709
5736 5737 5737 5737 5737 5736 5736 5736 5736 5736 5736 5736 5735 5735 5734 5733 5732 5731 5730 5730 5729 5728 5728 5726 5725 5723 5722 5721 5720 5718 5716 5714 5712 5710 5708 5706 5704 5702
5732 5731 5731 5731 5731 5731 5730 5730 5730 5730 5729 5729 5729 5728 5728 5727 5726 5726 5725 5724 5723 5723 5722 5721 5719 5718 5717 5715 5714 5712 5710 5708 5707 5704 5702 5701 5699 5696
5726 5726 5725 5725 5725 5724 5724 5724 5723 5723 5723 5723 5722 5722 5721 5720 5720 5720 5719 5718 5718 5717 5716 5715 5713 5712 5711 5710 5708 5706 5704 5703 5701 5699 5696 5695 5692 5690
5720 5719 5719 5719 5718 5718 5717 5717 5717 5716 5716 5716 5716 5715 5715 5714 5714 5713 5713 5712 5712 5711 5710 5709 5708 5706 5705 5703 5701 5700 5698 5697 5695 5693 5690 5688 5686 5684
5713 5713 5712 5712 5711 5711 5711 5710 5710 5709 5709 5709 5709 5709 5708 5708 5707 5707 5706 5706 5705 5704 5703 5702 5701 5700 5698 5697 5695 5694 5692 5690 5688 5686 5684 5682 5680 5678
5706 5706 5705 5705 5705 5704 5704 5703 5703 5703 5702 5702 5702 5701 5701 5701 5700 5700 5699 5699 5698 5697 5696 5695 5694 5693 5692 5690 5688 5687 5685 5683 5682 5679 5678 5676 5674 5671
5698 5698 5698 5698 5698 5697 5697 5696 5696 5695 5695 5694 5694 5694 5694 5693 5693 5692 5692 5691 5691 5690 5689 5688 5687 5686 5684 5683 5681 5680 5679 5677 5675 5673 5671 5669 5667 5664